ベルナーディネッリ-バーンスティーン彗星

C/2014 UN271 ( Bernardinelli-Bernstein )

English version
Home page
Updated on September 11, 2021

---------------------------------------------------------------------

・ プロフィール

発見日 2014年10月20日
発見光度 22.4等
発見者 G. Bernstein and P. Bernardinelli (Dark Energy Survey)

・ 写真集

・ 軌道要素

Epoch 2031 Jan. 14.0 TT = JDT 2462880.5                                         
T 2031 Jan. 22.92336 TT                                 Rudenko                 
q  10.9501320            (2000.0)            P               Q                  
z  -0.0000652      Peri.  326.32129     -0.81028361     -0.55983890             
 +/-0.0000031      Node   190.02358     +0.03906991     -0.34660264             
e   1.0007145      Incl.   95.45457     -0.58473414     +0.75262674             
From 58 observations 2014 Aug. 14-2021 June 22, mean residual 0".1.             

・ 星図

・ 光度変化

        m1 = 0.0 + 5 logΔ + 10.0 log r

---------------------------------------------------------------------

軌道要素はM.P.E.C. 2021-M83に掲載されたものです。
星図はステラナビゲータ Ver.10 (アストロアーツ) で作成したものです。
光度グラフはComet for Windowsで作成したものです。

---------------------------------------------------------------------

Copyright(C) Seiichi Yoshida (comet@aerith.net). All rights reserved.